RH
92 80 69 62 63 66 70 75 77 78 81 85 91 97 100 101 101 98 94 92 90 88 87 88 88 90 91 93 96 98 100 100 100 99 97 96 96 94 92 90 87 85 82 79 76 74 71 69 68 66 64 63 61 60 59 57 55 52 50 49 47 46 43 40 38 37 37 37 37 38 36 35 34 32 31 29 27 25 24 23 23 22 21 21 20
107 102 95 86 80 77 76 78 79 78 77 77 79 84 89 94 97 97 97 98 96 93 92 91 91 92 93 95 98 99 99 99 97 95 93 92 91 89 87 84 82 80 77 76 74 71 68 66 65 63 61 59 58 58 57 55 54 51 49 46 44 40 36 33 30 28 28 28 28 28 27 25 25 24 23 23 21 21 20 20 19 18 18 18 18
106 107 109 107 101 96 92 89 87 85 83 81 79 77 77 78 79 81 83 86 87 88 89 90 91 92 93 93 93 92 91 90 89 88 87 86 85 84 82 80 80 79 78 77 76 73 70 69 69 67 64 62 60 59 59 57 54 51 46 41 37 33 29 26 24 22 22 23 23 24 24 23 23 22 23 23 23 23 23 23 22 22 22 21 20
100 102 106 111 112 109 104 100 95 91 88 86 84 82 79 76 74 73 74 75 77 78 80 82 84 86 88 89 90 91 92 93 93 93 92 91 89 87 85 84 83 83 83 82 81 79 78 77 76 74 71 68 66 64 62 57 52 46 40 34 30 28 25 23 22 22 24 25 25 26 26 25 25 24 24 25 25 25 25 25 25 25 24 23 23
100 101 103 106 109 108 107 107 105 101 97 92 88 86 83 80 78 78 78 79 80 81 83 85 87 89 92 94 95 97 98 98 98 98 97 96 94 92 90 89 90 90 90 89 88 87 85 84 82 80 76 73 69 65 59 52 45 38 33 30 27 26 25 25 25 25 26 27 27 27 26 26 26 25 25 25 25 25 25 24 24 23 21 20 19
85 94 101 106 108 109 108 108 106 104 101 97 94 92 92 91 91 92 93 95 95 96 98 98 98 98 98 98 97 97 98 98 98 97 96 95 94 94 94 95 96 96 95 95 93 92 90 89 87 81 75 69 63 56 49 44 39 35 33 31 30 29 28 28 28 27 26 26 26 26 26 25 25 24 23 23 22 21 20 19 18 16 15 14 13
50 59 67 76 84 91 96 99 101 102 102 102 102 102 102 103 104 103 103 104 103 103 102 102 101 99 98 98 98 98 98 98 98 97 97 97 98 99 100 100 100 100 99 98 95 92 86 81 76 69 61 55 50 45 42 40 38 37 36 35 33 31 30 29 28 27 26 25 24 23 23 22 21 21 20 18 17 16 14 13 12 10 10 9 9
37 38 41 44 47 51 56 60 65 69 74 80 85 91 96 100 104 106 107 107 106 105 103 102 101 101 101 101 101 101 101 101 101 101 102 102 101 99 97 95 92 89 85 81 76 70 64 59 55 50 47 45 43 42 41 41 40 38 36 34 32 31 29 28 26 25 23 22 21 19 18 17 17 16 15 14 13 12 11 9 9 9 9 9 9
31 33 34 35 36 37 38 39 40 41 43 46 49 54 60 66 72 77 81 83 85 86 87 88 87 87 88 88 88 88 88 88 86 86 85 83 80 76 72 68 64 60 56 53 50 48 46 45 44 44 44 44 43 43 42 40 39 37 35 32 30 28 26 25 23 21 19 18 16 15 14 14 13 13 13 12 11 10 10 9 9 9 10 10 10
26 28 29 30 31 33 34 35 35 36 37 38 39 40 41 42 44 46 48 49 51 53 55 56 56 57 58 59 59 60 60 59 58 57 56 54 53 51 48 46 45 43 42 42 43 43 44 44 44 44 44 43 43 41 40 38 36 34 31 29 27 24 22 20 18 17 15 14 13 13 12 12 12 12 11 11 11 10 10 10 10 11 11 11 12
23 24 25 27 28 30 31 32 33 34 35 36 37 38 39 40 41 42 43 44 45 45 46 46 47 47 47 47 48 48 48 48 47 47 46 46 45 44 43 43 42 42 42 43 43 44 44 44 43 43 42 41 39 38 35 33 31 28 26 24 22 20 18 16 15 14 13 12 12 12 11 11 12 12 11 11 11 11 10 11 11 11 11 11 12
18 20 21 23 25 26 28 29 30 32 33 34 35 36 37 38 39 40 41 42 44 45 45 46 47 47 46 46 46 46 46 46 45 45 44 43 42 41 41 40 40 41 42 42 42 42 41 39 38 37 36 34 33 31 28 26 24 22 20 18 17 16 15 13 12 12 11 11 11 11 11 12 12 12 12 11 11 11 11 11 11 11 10 10 11
15 16 17 18 20 21 22 23 25 26 27 28 29 30 31 32 33 34 35 36 37 38 39 39 40 40 41 41 41 41 40 40 39 39 38 37 37 37 37 37 38 38 38 37 36 34 33 32 30 29 28 26 25 23 21 20 18 17 16 15 14 13 12 12 11 11 11 11 11 12 12 12 12 12 12 11 10 10 11 10 10 10 10 10 10
12 13 13 14 15 16 17 18 18 19 20 21 22 23 24 25 25 26 26 27 28 28 29 30 30 31 32 32 33 33 33 33 32 32 32 33 33 32 32 32 31 31 30 28 27 26 25 24 23 22 21 19 18 17 16 15 14 13 13 12 12 12 12 12 12 12 12 12 12 12 13 12 12 12 11 10 10 10 10 10 10 10 9 10 10
10 10 10 11 11 12 12 13 13 13 14 15 15 16 17 18 19 19 20 20 21 21 22 23 23 24 25 25 26 26 26 26 26 27 27 26 26 24 24 23 23 22 22 21 20 19 18 18 17 17 16 15 15 14 13 13 12 12 12 12 12 12 13 13 13 12 12 13 12 12 12 11 11 11 11 10 10 10 10 9 9 9 9 9 9
8 8 9 9 9 9 10 10 10 11 11 11 12 12 13 13 14 14 15 15 15 16 17 17 18 18 18 19 19 19 19 19 19 19 19 18 18 17 17 17 17 16 16 16 15 15 14 14 14 14 13 13 13 12 12 12 12 12 13 13 13 13 13 14 14 13 12 12 12 11 11 11 11 11 11 11 10 10 10 9 9 9 9 8 9
8 8 8 8 9 9 9 9 9 9 10 10 10 10 11 11 11 12 12 12 12 13 13 13 13 14 14 14 14 14 14 14 14 14 14 14 14 13 14 14 13 13 13 13 13 13 13 13 12 12 12 12 13 13 13 13 13 13 13 14 14 14 14 15 13 12 12 11 10 10 11 11 11 11 11 11 11 10 9 8 8 8 8 8 9
7 7 7 8 8 8 8 9 9 9 9 9 10 10 10 10 10 10 10 10 10 11 11 11 11 11 11 11 11 11 11 11 12 12 12 12 12 12 12 12 12 12 12 12 12 12 12 12 12 13 13 13 14 14 14 13 13 14 13 13 14 14 14 14 12 11 11 10 10 10 10 11 11 11 11 10 10 9 9 8 9 8 8 8 9
7 7 8 8 8 8 8 8 8 8 9 9 9 9 9 9 9 9 10 10 10 10 10 10 10 10 10 10 10 11 11 11 11 11 11 11 11 11 11 11 11 11 11 11 12 12 13 13 14 14 15 15 15 15 14 14 13 13 13 12 12 13 12 11 10 10 10 10 10 10 10 10 10 10 10 10 10 9 8 8 9 8 8 8 8
7 7 7 7 8 8 8 8 8 9 9 9 9 9 9 9 9 9 9 9 9 9 9 9 10 10 10 10 10 10 10 10 10 10 10 10 10 10 10 10 11 11 11 12 13 13 14 15 15 15 15 15 15 14 14 13 12 12 12 12 12 11 11 10 10 10 10 10 10 10 10 10 10 10 10 10 10 9 8 8 8 8 8 8 8
7 7 8 8 8 8 8 8 8 8 8 8 8 8 9 9 9 9 9 9 9 9 9 9 9 9 9 9 9 9 9 9 9 10 10 10 10 10 10 11 12 12 13 14 14 15 15 15 15 15 14 14 14 13 13 12 12 11 11 11 11 11 11 11 11 11 11 11 11 11 10 10 10 10 10 10 9 9 9 8 8 8 8 9 9
7 7 7 7 7 7 7 8 7 7 8 8 8 8 8 8 8 8 8 8 8 8 8 9 9 9 9 9 9 9 9 10 10 10 10 10 11 11 12 13 13 14 14 14 15 15 14 14 14 14 13 13 13 13 13 12 11 11 11 11 11 11 11 11 11 12 11 11 11 11 10 10 10 10 10 9 9 8 8 8 8 8 9 10 10
7 7 7 8 8 7 7 7 7 7 7 7 7 8 8 8 8 8 8 8 9 9 9 9 9 9 9 9 9 10 10 10 11 11 11 12 12 13 14 14 14 14 14 14 14 14 14 13 13 13 13 13 13 12 12 12 11 10 10 10 10 10 11 11 11 11 11 11 11 11 10 10 10 10 9 9 8 8 8 8 9 9 10 11 11
7 7 7 7 7 7 7 7 7 7 7 8 8 8 8 8 8 9 9 9 9 9 9 9 9 10 10 10 10 11 11 12 12 13 13 13 14 14 14 14 14 14 14 14 14 14 13 13 13 13 13 13 13 12 12 12 11 10 10 10 10 10 10 10 10 10 10 10 11 11 11 11 10 10 10 10 9 9 9 9 9 10 10 11 12
7 7 8 8 8 8 7 7 7 7 7 8 8 8 8 8 8 9 9 9 9 9 9 10 10 10 11 11 12 12 13 13 14 14 14 14 14 14 14 14 14 14 14 14 14 13 14 14 14 14 14 13 13 12 12 12 11 11 11 11 10 10 10 10 10 10 10 10 10 10 11 11 11 12 12 12 12 11 9 9 9 10 10 11 11
7 8 8 8 8 8 8 7 7 7 8 8 8 8 8 8 8 9 9 9 9 9 10 10 11 11 12 13 13 13 13 14 14 14 14 14 14 14 14 14 14 14 13 13 13 14 14 14 14 14 14 13 13 12 12 12 12 12 11 11 10 10 10 10 10 10 10 10 10 10 11 12 12 13 14 14 14 14 12 10 9 9 10 10 11
8 8 8 8 8 8 8 8 7 7 8 8 8 8 8 8 9 9 9 10 10 10 10 11 11 12 13 13 14 14 14 14 14 14 14 15 14 14 14 14 14 13 13 13 13 13 13 13 13 13 13 13 13 13 13 13 12 12 12 11 11 10 9 9 9 10 10 10 11 11 12 13 13 13 14 14 15 15 14 12 10 9 9 9 10
8 8 8 8 8 8 8 8 8 8 8 8 8 9 9 9 9 9 9 10 10 10 11 11 12 13 13 14 14 14 14 14 14 14 14 14 14 14 14 13 13 13 13 13 12 12 12 11 12 12 12 13 13 13 13 13 12 12 11 11 11 10 10 10 10 10 11 11 12 12 12 12 13 13 13 13 14 14 14 13 12 11 9 8 9
8 8 8 8 9 8 8 8 8 8 8 8 9 9 9 9 9 9 10 10 11 11 11 12 12 13 13 14 14 14 14 14 13 13 12 12 12 12 12 12 12 12 12 12 12 11 11 12 12 12 13 13 12 12 12 12 12 12 12 12 12 11 11 11 11 11 11 11 11 11 11 11 11 11 11 12 12 13 13 13 12 12 10 9 9
8 8 8 8 8 8 8 8 8 8 8 8 9 9 9 9 9 10 10 10 11 11 11 11 11 12 12 13 13 13 13 13 12 11 11 10 10 10 11 11 12 12 12 11 11 11 11 12 12 12 12 12 12 12 13 13 13 13 13 13 12 12 11 11 10 10 10 9 10 10 9 10 10 10 10 10 10 11 11 11 11 11 10 10 9
8 8 8 8 8 8 8 8 8 8 8 8 9 9 9 10 10 10 10 10 10 10 11 11 11 11 11 11 12 12 12 12 12 11 11 10 10 10 11 12 13 13 13 12 11 11 11 11 11 11 12 12 12 13 13 13 13 13 12 12 11 10 10 9 9 9 9 9 9 9 9 9 9 9 10 9 10 10 10 9 10 10 9 10 9
8 8 8 8 8 8 8 8 8 8 8 8 8 8 9 9 9 10 10 10 10 9 9 10 10 10 10 10 11 11 12 12 12 12 11 11 10 10 11 12 12 12 12 12 11 12 12 12 12 12 12 12 12 11 11 11 11 11 10 10 10 9 9 9 8 8 8 8 8 8 8 8 8 8 8 9 9 10 10 10 10 10 9 10 10
9 9 8 8 8 8 8 8 8 8 8 8 8 8 9 9 9 9 9 10 10 10 10 10 10 10 10 11 11 12 12 13 13 13 12 12 11 12 12 11 11 11 11 11 12 12 12 12 12 11 11 10 9 9 9 9 9 9 9 9 9 9 9 9 8 8 8 8 8 8 7 7 7 7 7 7 8 8 9 9 9 9 9 9 10
9 9 9 8 8 8 9 9 9 9 9 9 9 9 9 9 10 9 9 9 9 10 10 11 11 12 12 12 12 13 13 13 13 13 13 12 12 12 13 12 12 12 12 12 11 11 10 10 10 9 9 9 9 10 10 11 11 11 11 11 10 10 9 9 8 8 8 8 8 8 8 7 7 7 7 7 7 7 7 7 7 8 8 8 8
10 10 10 9 9 9 9 10 10 10 9 9 9 9 10 10 10 10 10 10 10 10 10 10 11 12 12 13 14 14 14 14 13 13 13 12 13 14 15 14 14 13 12 11 10 9 9 9 9 9 10 11 12 13 14 14 14 14 13 12 12 11 10 10 9 9 9 8 8 8 8 8 8 8 8 8 8 7 7 7 7 7 7 7 8
10 11 11 10 10 9 9 9 10 10 10 10 10 10 10 10 10 11 11 12 12 11 11 10 10 11 11 12 13 13 13 13 13 13 13 13 14 14 14 13 12 11 10 10 10 10 11 12 12 13 13 13 14 14 14 14 14 13 13 13 12 12 12 11 10 10 10 9 9 9 9 9 8 8 9 9 9 9 9 9 9 9 8 8 8
11 11 11 10 10 9 9 10 10 10 10 10 10 10 10 10 11 11 12 12 12 12 12 11 11 11 11 11 11 12 12 12 12 12 12 12 12 11 11 11 10 11 11 12 13 14 14 15 15 15 14 14 14 13 13 13 13 13 12 12 12 12 12 12 12 12 11 11 10 10 10 10 9 9 9 9 9 10 10 11 11 11 11 11 10
11 11 11 11 10 10 10 10 10 11 11 11 11 10 10 10 11 11 11 12 12 12 12 12 12 12 11 11 11 11 11 11 11 11 11 10 10 10 11 12 13 13 14 14 14 14 14 14 14 14 14 14 14 14 14 13 13 13 13 12 12 12 12 12 12 12 11 11 11 10 10 10 10 9 9 9 9 9 9 10 10 11 11 12 12
11 12 11 11 11 10 10 11 11 11 11 11 11 11 10 11 11 11 11 12 12 12 12 12 12 12 12 12 12 11 11 10 10 10 10 11 12 13 14 14 15 14 14 13 13 13 13 13 13 13 13 13 13 13 14 14 13 13 13 13 12 12 12 12 11 11 11 11 11 10 10 10 10 10 10 10 10 10 9 10 10 10 10 11 11
11 12 12 11 11 11 11 11 11 11 11 11 11 11 11 11 11 11 11 11 12 12 12 12 12 13 13 13 13 12 11 10 10 11 12 13 14 15 15 14 13 13 13 12 12 12 11 12 12 12 12 12 13 13 13 13 13 13 13 13 12 12 12 12 12 11 11 11 11 11 11 10 10 10 10 9 9 9 9 10 9 9 10 10 10
11 12 12 12 11 11 11 11 11 11 11 11 11 11 11 11 11 11 11 11 11 12 12 12 13 14 14 13 12 11 11 11 12 13 14 14 14 14 13 12 12 12 11 11 11 11 11 11 11 12 12 13 13 13 13 13 13 13 13 12 12 12 12 12 11 11 11 11 11 11 10 10 10 10 9 9 9 9 9 10 10 10 10 10 10
11 11 12 12 12 12 12 11 11 11 11 11 11 11 11 10 10 11 11 11 12 12 13 13 14 14 13 12 11 12 13 14 15 15 14 13 12 12 12 12 12 12 13 13 13 14 14 14 14 14 14 15 15 15 15 15 14 14 14 14 14 14 14 13 13 13 13 12 12 12 12 12 12 12 12 12 11 11 11 10 10 10 9 9 9
11 12 12 12 11 11 11 11 11 11 10 10 11 11 10 10 11 11 11 12 13 14 14 13 13 12 12 12 13 15 16 16 15 14 13 13 12 12 13 13 14 14 15 15 15 15 15 15 15 15 15 15 14 14 14 14 14 15 15 15 15 15 15 15 14 14 14 14 13 14 14 14 14 13 13 13 12 11 10 10 9 9 8 8 8
11 11 11 11 11 11 11 11 10 10 10 10 10 10 10 11 11 12 12 13 14 14 13 12 11 12 13 15 17 18 17 16 15 15 15 15 15 15 15 15 15 14 14 14 14 14 14 14 14 13 13 13 12 12 12 13 13 13 14 14 14 15 15 15 15 15 14 14 14 13 13 12 12 11 11 10 10 9 9 8 8 8 7 7 7
11 11 11 11 11 11 11 10 10 10 10 10 10 10 11 11 12 13 14 14 14 13 12 12 12 14 17 19 19 19 18 17 17 18 18 18 18 17 16 16 15 14 14 14 14 14 14 14 14 14 14 14 13 13 13 13 14 14 14 14 14 14 15 15 14 14 13 13 12 11 10 9 9 8 8 8 8 8 8 8 8 8 7 7 7
11 11 11 11 11 10 10 10 10 9 10 10 10 11 12 12 13 14 14 13 13 12 12 14 16 19 20 20 19 19 19 19 20 20 20 19 18 17 16 16 16 16 16 15 15 15 15 15 16 15 15 15 15 14 14 14 14 14 14 14 13 13 13 12 12 11 10 9 9 8 8 8 8 8 8 8 7 7 7 7 7 7 7 7 7
11 11 11 10 10 10 10 9 9 9 10 10 11 12 13 13 13 13 13 13 13 13 15 18 21 22 22 21 20 20 21 21 21 20 19 18 17 17 16 16 16 16 15 15 14 14 14 14 14 14 15 15 15 14 15 15 14 14 14 13 12 11 11 10 9 9 8 8 8 8 8 8 7 7 7 7 7 7 6 6 6 7 6 6 6
10 10 10 10 10 9 9 9 9 10 11 11 12 13 13 13 13 13 12 13 14 16 19 22 23 22 21 20 21 22 22 21 20 19 18 18 17 17 16 15 14 14 13 12 12 12 12 12 12 12 13 13 13 13 13 14 13 13 12 11 10 9 9 9 9 9 8 8 8 8 7 7 7 7 7 6 6 6 6 6 6 6 6 6 6
10 10 10 9 9 9 9 9 10 11 12 12 12 13 13 13 12 12 13 14 17 20 22 23 22 21 21 21 22 22 21 20 19 18 18 18 17 16 15 14 13 12 12 11 11 11 11 11 11 11 11 11 12 12 12 12 12 11 10 9 9 9 9 9 9 9 8 8 8 7 7 7 6 6 6 6 6 6 6 6 6 6 6 6 6
9 9 9 9 9 9 10 10 11 12 12 12 12 12 12 12 13 13 15 18 21 23 23 21 21 21 22 22 22 21 20 19 19 19 18 16 15 14 13 13 12 12 12 12 12 12 11 11 11 11 11 11 11 11 11 11 10 10 9 9 9 9 9 9 9 8 8 7 7 7 7 6 6 6 6 6 6 6 6 6 6 6 6 6 6
9 9 9 9 10 10 11 11 11 12 12 12 11 12 12 13 14 16 18 21 23 23 21 21 21 23 23 22 21 20 19 19 18 17 16 15 14 13 13 13 13 13 12 12 12 12 12 12 11 11 10 10 10 10 10 10 10 9 10 10 10 9 9 8 8 8 7 7 7 7 7 7 7 7 7 6 6 6 6 6 6 6 6 6 6
Wind_Speed
102 102 101 100 99 99 99 99 98 97 97 97 97 97 98 99 100 101 101 101 101 101 101 102 102 103 103 104 105 107 108 110 112 113 114 115 117 118 119 121 122 122 124 125 126 127 128 128 129 130 131 131 132 133 134 135 135 136 136 136 135 135 135 134 132 130 130 131 132 133 134 135 135 136 137 137 138 138 138 138 138 138 138 139 139
104 105 105 105 105 104 104 103 103 102 101 101 100 100 101 102 103 103 104 104 105 105 105 105 105 106 106 107 109 110 112 114 115 117 118 119 120 122 123 124 125 126 127 128 129 130 131 131 132 133 134 134 134 135 135 136 136 136 136 136 135 135 134 132 130 128 127 127 128 129 129 130 130 131 131 132 132 132 133 133 133 134 134 134 135
106 107 108 109 109 109 109 108 108 107 106 106 105 105 105 106 106 106 107 107 108 108 108 108 109 109 110 111 112 114 116 117 119 120 121 123 124 125 126 127 128 129 130 130 132 133 133 134 134 135 136 136 136 136 136 136 137 137 136 136 134 133 132 130 127 125 124 124 125 125 126 126 126 126 126 126 127 128 128 128 129 129 129 130 131
110 111 112 112 113 113 113 113 112 112 111 111 110 110 110 110 110 110 110 111 111 112 112 113 113 114 114 115 116 118 119 120 122 123 125 126 127 128 129 130 131 131 132 133 134 135 135 135 136 137 137 137 137 137 137 137 137 137 136 134 133 131 130 127 125 123 122 122 123 123 124 123 123 122 123 123 124 124 125 125 126 126 127 127 127
114 115 115 116 117 117 117 117 117 116 116 115 115 115 114 114 114 114 114 115 115 116 116 117 118 118 119 120 121 122 123 124 125 127 128 129 130 132 132 133 133 134 135 135 136 136 137 137 137 138 138 138 138 138 138 138 137 136 134 133 131 130 128 126 125 124 123 122 122 122 122 122 121 121 121 121 121 122 122 123 124 124 125 125 125
116 118 119 120 121 121 121 121 121 121 120 120 119 118 118 118 118 118 119 119 120 120 121 122 123 123 124 125 125 126 127 128 129 130 131 132 133 134 135 135 136 136 136 137 137 138 138 138 138 138 138 138 137 137 137 136 135 134 133 132 131 130 128 126 125 124 123 122 121 121 120 120 120 120 119 120 120 120 120 121 122 122 122 122 122
113 116 119 121 122 124 124 125 125 125 124 124 123 122 122 122 122 122 123 124 124 125 126 127 127 128 128 129 129 130 131 131 132 133 134 134 135 135 136 136 137 137 137 138 138 138 138 137 137 137 137 136 135 135 135 134 133 133 132 132 131 129 128 126 125 124 123 121 120 119 119 119 119 119 119 118 118 118 119 119 118 118 118 117 117
110 112 115 117 119 121 122 123 124 124 124 124 124 124 124 125 125 126 127 127 128 129 129 130 130 130 131 131 131 132 132 132 133 134 134 135 136 136 136 137 137 137 137 137 137 136 136 135 135 135 134 134 133 133 133 133 132 132 131 131 130 128 127 126 125 124 122 120 119 118 117 116 116 116 116 116 116 116 116 115 113 112 113 112 112
110 111 113 114 116 117 118 119 120 120 120 121 121 121 122 123 124 125 127 127 128 129 129 130 130 130 130 130 131 131 131 132 133 133 134 134 134 135 135 135 135 134 134 134 133 133 133 133 132 132 132 132 132 132 132 132 131 131 130 130 129 127 126 125 124 122 120 119 117 116 114 113 113 114 114 113 114 113 112 110 108 108 109 109 109
112 113 113 114 115 116 116 117 117 118 118 117 118 118 119 119 120 121 122 123 124 124 125 126 126 127 127 127 128 128 129 129 130 131 131 131 132 132 132 132 132 131 131 131 130 130 131 131 131 131 131 131 131 131 131 131 131 130 129 128 127 126 124 123 121 120 118 116 114 112 111 110 110 111 111 111 111 110 108 107 106 105 106 106 106
112 113 114 115 115 116 117 117 117 118 117 117 117 117 117 118 118 119 119 120 120 121 122 123 123 124 124 125 125 126 126 127 128 128 129 129 129 129 129 129 129 129 128 128 128 129 129 129 130 130 130 130 130 130 130 130 129 128 127 126 125 123 122 120 118 116 114 112 110 109 108 107 108 109 108 108 108 107 105 104 104 103 103 104 104
111 112 112 113 114 115 116 117 118 118 118 118 118 118 118 119 119 119 119 120 120 121 121 122 123 123 124 124 125 125 126 126 127 127 128 128 128 128 127 127 127 127 127 127 128 128 129 129 129 129 129 129 129 128 128 127 125 124 123 122 120 119 118 116 114 112 110 108 107 106 105 105 105 106 106 105 105 103 102 102 102 101 101 101 101
108 109 110 111 112 113 114 115 115 116 117 117 118 118 118 119 119 119 120 120 120 121 122 122 123 123 124 124 125 125 126 126 126 126 127 126 126 126 126 126 126 126 127 127 128 128 128 128 127 127 126 126 125 124 123 122 120 119 118 116 115 114 112 111 109 108 106 105 104 103 103 103 103 102 103 102 101 100 100 100 100 99 98 97 97
103 104 105 107 108 109 110 111 112 113 114 114 115 116 116 117 117 118 118 118 119 120 120 121 121 122 123 123 124 124 124 125 125 125 125 125 125 125 125 125 126 126 126 126 126 125 124 124 123 122 121 120 120 119 117 116 115 113 112 110 109 108 107 107 106 105 104 103 101 100 101 101 100 99 100 99 98 98 98 97 96 96 94 93 94
97 98 99 101 102 104 105 106 107 108 109 110 111 111 112 113 114 114 115 116 116 117 117 118 119 119 120 120 121 121 121 122 122 122 122 123 123 123 123 122 122 122 122 121 121 120 119 118 117 116 115 115 114 112 111 110 109 107 106 106 105 104 104 103 104 103 101 100 99 99 99 98 97 96 96 96 95 95 95 94 93 93 92 92 92
91 92 93 94 96 97 99 100 101 102 103 104 105 106 107 108 109 110 111 112 112 113 114 114 115 115 116 116 117 117 118 118 118 118 118 119 119 118 117 117 116 116 116 115 114 113 112 111 110 109 109 108 107 106 106 105 104 103 103 102 102 101 101 101 102 101 100 98 97 96 96 95 94 93 93 93 93 93 93 92 91 92 92 91 90
86 87 88 89 90 91 92 94 95 96 97 98 99 100 101 102 104 105 106 107 107 108 109 110 110 111 111 112 112 112 113 112 112 113 113 113 112 112 111 111 110 109 108 108 107 107 106 105 104 103 102 102 102 102 102 102 101 101 101 100 99 99 99 99 100 99 98 96 94 93 92 92 92 91 91 91 91 92 92 91 91 92 92 90 89
82 83 83 84 85 87 88 89 90 91 92 93 94 95 96 97 98 99 100 101 101 102 103 104 104 105 105 105 105 105 105 105 105 106 106 106 106 105 104 103 102 101 101 100 100 99 99 99 99 99 99 99 99 100 100 100 99 99 98 97 97 96 97 98 98 96 95 94 92 91 90 89 90 90 90 91 91 92 92 90 91 92 91 90 90
78 79 80 81 82 83 84 85 86 87 88 89 90 90 91 92 93 93 94 95 95 96 97 97 97 98 98 98 99 99 99 99 99 99 99 99 99 98 97 96 95 95 95 95 94 94 95 95 96 96 96 97 98 98 99 98 97 96 96 95 95 94 95 96 95 93 93 91 90 90 89 89 89 90 90 91 92 92 92 90 90 91 91 91 91
75 76 77 78 79 80 82 82 83 84 85 86 87 87 88 89 89 90 90 91 91 92 92 92 92 93 93 93 93 93 93 93 93 93 94 93 93 92 91 91 91 91 91 91 91 91 92 93 94 94 95 95 96 96 96 96 95 94 94 94 94 94 94 93 92 91 91 90 89 90 89 90 90 90 90 91 92 92 92 91 90 90 90 90 91
73 73 74 75 76 77 78 79 80 81 82 83 84 84 85 86 86 86 87 87 88 88 88 88 89 89 89 89 89 89 89 89 89 89 89 89 89 89 88 88 88 88 88 88 89 89 90 91 92 93 93 93 94 94 94 94 94 93 93 93 93 93 93 92 91 91 90 90 89 89 90 90 91 91 91 92 92 92 92 91 90 89 88 88 89
71 71 72 73 74 75 75 76 77 78 79 80 81 81 82 82 83 83 83 84 84 85 85 85 85 85 85 85 85 85 85 85 85 86 86 86 86 86 86 86 86 86 86 86 87 88 89 89 90 91 91 91 92 92 93 94 94 93 92 92 91 91 91 90 90 90 90 89 89 89 90 91 92 92 93 93 92 91 90 88 87 87 87 87 87
71 71 72 72 73 73 74 74 75 76 76 77 77 78 79 79 79 80 80 80 81 81 81 82 82 82 82 82 82 81 82 82 82 83 83 83 83 83 84 84 84 84 84 85 86 87 87 88 88 88 89 90 91 92 92 93 93 92 91 91 91 90 89 89 89 89 89 89 89 89 90 91 92 92 93 93 92 90 88 86 85 85 85 86 86
70 71 72 72 72 73 73 73 73 74 74 75 75 75 76 76 77 77 77 78 78 78 78 78 79 79 79 79 79 79 79 79 80 80 81 81 81 81 82 82 82 82 83 83 84 85 86 86 87 87 88 90 91 91 91 92 92 92 91 91 90 89 89 88 88 88 88 88 88 89 89 90 91 91 92 92 91 90 88 86 84 84 84 85 85
69 69 70 71 71 72 72 72 72 72 73 73 73 73 74 74 74 75 75 75 75 76 75 75 75 76 76 76 77 77 77 77 77 78 79 79 80 80 80 81 81 81 82 82 83 83 84 84 86 87 88 89 90 91 91 91 92 92 91 91 90 89 88 88 88 88 87 87 87 87 88 88 88 89 89 90 91 91 90 87 84 83 83 83 83
67 67 68 69 70 70 70 70 70 70 70 71 71 71 71 72 72 72 72 73 73 73 73 73 73 73 73 74 75 75 75 76 76 76 77 78 79 79 79 80 80 81 81 81 81 81 82 83 85 86 88 89 90 90 91 91 91 91 91 90 90 89 88 88 88 88 87 87 86 86 86 86 86 86 87 88 89 90 91 90 86 83 82 82 82
65 65 66 67 67 68 68 68 68 68 68 68 68 69 69 69 70 70 70 71 71 71 71 71 71 71 71 72 73 74 74 75 75 75 75 76 77 78 78 79 80 80 80 80 80 81 82 83 84 85 86 87 88 88 89 90 90 90 89 90 90 90 89 88 88 87 87 86 85 84 84 84 84 84 85 85 86 87 89 90 89 86 84 82 80
63 64 64 64 65 65 66 66 66 66 66 66 66 66 67 67 67 67 68 68 69 69 69 69 69 69 69 70 71 72 73 74 74 74 74 75 75 76 77 78 79 79 80 80 80 81 82 82 82 83 83 84 86 87 88 88 89 89 89 89 89 89 89 88 87 87 86 85 84 84 83 83 83 83 83 83 83 85 86 87 88 88 86 83 80
62 62 63 63 63 63 63 64 64 63 63 63 64 64 65 65 65 65 65 66 67 67 67 67 67 67 67 68 69 70 71 73 74 74 74 74 74 75 75 76 77 78 79 80 80 80 80 80 81 81 82 83 84 85 87 88 88 89 89 89 88 88 87 87 86 85 85 84 83 83 82 82 81 81 81 80 81 83 84 84 85 86 86 85 82
60 60 61 61 61 61 61 61 61 61 61 61 61 61 62 62 63 63 63 63 64 64 64 64 64 64 65 66 67 68 70 72 73 74 74 73 73 73 73 74 75 77 79 79 79 79 79 79 80 81 82 82 83 84 85 86 87 87 87 88 87 86 85 85 84 84 83 83 82 81 81 80 80 80 79 79 79 80 81 82 83 83 84 84 83
58 59 59 59 59 59 59 59 59 59 58 58 58 58 58 59 59 60 60 61 61 61 62 62 63 63 64 65 66 67 68 70 72 73 73 73 73 71 70 72 74 76 78 79 79 78 79 79 80 80 81 81 81 82 83 84 84 85 85 85 85 84 83 83 82 81 81 80 80 79 79 78 78 78 78 78 78 78 79 79 80 80 81 81 82
57 57 58 58 58 57 57 57 56 56 56 56 56 56 56 56 57 57 58 59 60 60 60 61 61 62 62 63 64 65 67 68 70 71 72 73 72 71 71 72 73 74 75 77 77 78 78 79 79 79 79 79 79 79 80 80 81 81 81 82 82 81 81 80 79 79 78 78 77 76 76 76 76 75 75 75 75 75 76 76 77 77 78 78 79
56 56 56 56 56 55 55 55 55 55 55 55 55 55 55 56 56 56 56 57 58 58 59 59 60 60 61 61 62 63 65 66 68 69 71 71 71 71 72 74 74 74 74 75 76 76 76 77 77 77 77 77 77 77 77 77 77 77 77 77 77 77 77 76 76 76 76 75 75 75 74 74 74 73 73 73 73 72 73 73 74 74 75 76 76
55 54 54 54 54 54 54 54 54 54 54 53 54 54 54 55 56 56 56 56 56 56 56 57 58 59 61 61 62 62 63 65 66 68 69 70 70 70 72 74 74 74 74 74 74 74 74 74 75 74 74 74 74 74 74 75 75 75 74 74 74 74 73 73 72 72 72 72 72 72 72 72 72 72 72 72 71 71 71 71 71 71 72 73 74
53 53 53 53 52 52 52 52 52 52 52 52 53 53 53 54 54 55 56 57 56 56 56 55 55 56 58 59 61 62 63 64 65 66 67 68 68 69 71 72 72 73 73 73 73 73 73 73 73 72 72 71 71 71 72 73 73 73 73 73 73 72 72 72 71 70 69 69 69 69 69 69 69 69 70 70 70 70 70 70 70 69 70 70 71
52 52 52 51 51 51 51 51 51 51 51 51 52 52 53 53 53 54 55 56 57 57 57 56 55 55 55 57 59 61 63 64 64 65 65 65 65 66 67 69 70 70 70 70 70 70 71 71 71 71 71 71 70 70 71 71 72 72 72 72 72 71 71 71 70 70 69 68 68 67 66 66 66 66 66 66 67 67 68 68 69 69 69 69 69
51 51 51 51 50 50 50 50 50 51 51 51 51 51 51 52 52 53 54 54 55 56 57 57 57 57 56 56 57 59 61 62 62 62 62 62 62 62 63 64 65 66 66 66 66 67 67 68 69 69 70 70 69 69 69 70 70 70 70 70 70 70 70 69 69 68 68 68 67 67 66 66 65 65 64 64 64 65 65 65 66 67 68 69 69
49 50 50 50 49 50 49 50 50 50 50 50 50 50 50 51 51 52 53 54 54 55 56 57 57 57 58 57 57 58 59 59 60 60 60 60 60 61 61 61 62 63 63 63 63 64 64 65 66 67 67 68 68 67 67 68 68 68 68 69 69 69 69 68 68 68 67 67 66 66 65 65 65 65 64 64 64 64 64 64 64 65 66 67 68
48 48 48 48 48 48 48 48 49 49 49 49 49 50 50 50 51 52 52 53 53 54 55 56 56 57 57 58 57 57 57 57 58 58 59 59 59 59 59 60 60 60 61 61 61 62 62 63 63 64 65 65 66 66 66 65 65 66 66 67 67 68 68 67 67 67 66 66 65 64 64 64 64 63 63 63 63 63 63 63 63 63 64 64 65
47 47 47 47 47 47 47 47 48 48 48 48 49 49 49 50 50 51 51 52 52 53 53 54 55 55 56 56 56 57 57 57 57 57 57 57 57 58 58 58 58 59 59 60 60 60 60 61 61 62 63 63 64 64 64 64 64 64 64 64 65 65 65 65 65 65 65 64 64 63 63 62 62 62 62 62 62 62 62 62 62 63 63 63 64
45 45 45 45 46 46 46 47 47 47 48 48 48 48 48 49 50 50 50 51 51 52 52 52 53 54 54 55 55 56 56 56 55 55 56 56 56 56 57 57 57 58 58 58 59 59 59 59 60 60 60 61 62 62 62 63 63 63 63 63 63 63 63 63 63 63 63 63 63 63 62 62 61 61 60 60 60 60 60 60 60 60 60 60 60
44 44 44 44 45 45 46 46 46 47 47 47 46 47 48 48 48 49 49 50 50 51 51 51 52 52 53 54 54 54 54 54 54 54 55 55 55 55 55 56 56 57 57 57 57 57 57 58 58 58 58 59 59 60 60 61 61 61 61 61 61 61 61 61 61 61 61 61 61 61 61 60 60 59 59 58 58 58 58 58 58 58 58 58 57
43 42 43 43 44 45 45 45 45 46 46 45 46 46 47 47 47 48 48 48 49 49 50 50 50 51 52 52 52 53 53 53 54 54 54 54 54 55 55 55 55 55 55 55 54 54 55 55 55 55 56 56 57 57 58 58 58 58 58 58 58 58 58 58 58 58 58 58 58 58 58 57 57 57 57 56 56 56 56 56 56 57 57 57 56
42 42 42 43 43 44 44 45 45 45 44 44 45 46 46 46 46 47 47 47 48 48 49 49 49 50 50 51 51 52 52 53 53 54 54 54 54 54 54 54 54 54 53 53 53 52 52 52 53 53 53 54 54 55 55 55 55 56 56 56 55 55 55 55 55 55 55 55 54 54 54 54 54 54 54 54 54 55 55 54 54 55 55 55 55
41 41 42 42 42 43 43 44 44 44 43 44 44 45 45 45 45 45 46 46 47 47 48 48 49 49 49 50 51 51 52 52 52 53 53 53 54 53 53 53 53 52 52 52 52 51 51 51 51 52 52 53 53 53 54 54 54 54 54 54 53 52 52 51 51 51 51 51 51 50 50 51 50 51 51 51 52 52 53 53 53 53 53 53 54
41 41 41 41 41 42 42 43 43 43 43 43 44 44 44 44 45 45 45 46 46 47 47 47 48 48 49 50 50 50 50 51 51 51 52 52 52 51 51 51 51 51 50 50 50 50 50 50 50 51 51 51 51 52 52 52 52 52 52 51 51 50 49 48 47 47 47 47 47 47 47 47 47 47 48 48 49 49 50 50 51 51 51 51 51
40 40 40 41 41 42 42 42 42 42 42 42 43 43 43 43 44 44 44 45 46 46 46 47 47 48 48 49 49 49 49 49 49 49 49 49 49 49 49 49 49 49 48 48 48 48 48 48 49 49 49 49 49 49 49 49 49 49 49 49 48 47 47 46 46 45 45 45 45 45 45 44 45 45 45 46 46 46 47 47 48 48 48 48 48
39 39 40 41 41 41 41 42 41 41 41 42 42 42 42 43 43 43 44 44 44 45 45 46 47 47 48 48 48 48 48 48 48 48 48 48 48 48 48 48 48 48 48 47 47 47 47 47 48 48 48 48 48 47 48 48 48 47 47 46 46 46 45 45 45 44 44 44 43 43 43 43 42 42 43 43 43 43 44 44 44 44 44 44 44
39 39 40 40 41 41 41 41 41 40 41 41 41 41 41 42 42 43 43 43 44 44 45 46 46 47 47 47 47 47 47 47 47 47 47 47 48 48 48 48 48 48 47 47 47 47 47 47 47 47 47 47 47 47 46 46 46 46 45 45 44 44 44 44 44 43 43 42 42 42 41 41 40 40 40 40 40 40 40 40 40 41 41 41 41
39 39 40 40 40 40 41 41 40 40 40 41 41 40 41 41 42 42 42 43 43 44 45 45 46 46 46 46 46 46 45 45 46 46 46 47 47 48 48 48 48 47 47 46 46 46 46 46 46 46 46 46 46 46 46 45 45 44 44 43 43 42 42 42 42 42 41 41 40 39 39 39 38 38 37 37 37 37 37 38 38 38 38 38 38
39 39 39 40 40 40 40 40 40 40 40 40 40 40 40 41 41 41 42 42 43 44 44 45 45 45 45 45 44 44 44 44 44 45 45 46 47 47 47 47 47 47 46 46 45 46 45 45 45 45 45 45 45 45 45 44 43 43 42 41 41 41 41 41 40 40 39 39 38 37 37 36 36 36 35 35 35 36 36 36 36 36 36 35 36
Wind_Direction
270 270 269 268 268 267 266 266 266 265 265 264 264 264 264 264 264 264 264 264 264 264 264 264 265 265 265 266 267 267 268 268 269 269 269 270 270 270 271 271 271 271 272 272 272 273 273 273 273 273 274 274 274 274 274 275 275 275 275 275 274 274 274 273 273 272 272 272 272 271 271 271 271 271 270 270 270 270 269 269 269 268 268 267 267
268 269 270 270 270 269 269 268 267 267 266 265 264 264 263 263 264 264 264 265 265 265 265 265 265 266 266 266 267 267 268 268 269 269 270 270 270 271 271 272 272 273 273 274 274 274 274 275 275 275 275 276 276 276 276 276 276 276 276 276 276 275 275 275 275 274 274 273 273 272 272 271 271 271 271 271 270 270 270 269 269 269 268 268 267
266 267 267 268 269 269 269 268 268 267 267 266 266 265 265 264 264 265 265 265 265 266 266 266 266 266 267 267 267 268 268 269 269 270 270 271 271 272 272 273 273 274 274 275 275 275 276 276 276 277 277 277 277 277 277 277 277 277 277 277 277 277 277 276 276 275 275 274 274 273 273 272 272 271 271 271 271 270 270 270 269 268 268 267 267
264 265 265 265 266 266 267 267 267 267 267 267 267 267 266 266 266 266 266 267 267 267 267 268 268 268 268 268 269 269 270 270 271 271 272 272 273 273 274 274 274 275 275 275 276 276 276 277 277 277 278 278 278 278 278 278 278 278 278 278 278 278 278 277 277 277 276 275 275 274 274 273 273 272 272 272 271 271 271 270 269 269 268 267 266
264 264 264 264 264 265 265 265 265 266 266 266 266 266 267 267 267 267 268 268 268 268 268 269 269 269 269 269 270 270 270 271 271 272 272 273 273 274 274 274 275 275 275 276 276 276 276 277 277 277 278 278 279 279 279 279 279 279 279 279 279 278 278 278 278 277 277 276 276 275 275 275 274 274 273 272 272 271 271 270 269 269 268 267 267
264 264 264 264 264 264 264 264 265 265 265 265 266 266 267 267 267 267 267 268 268 268 268 268 268 268 269 269 269 270 270 271 271 271 272 272 273 273 274 274 274 275 275 275 276 276 276 277 277 277 278 278 278 278 279 279 279 279 279 279 279 279 278 278 278 277 277 277 276 276 276 275 275 275 274 273 272 272 271 270 269 269 268 268 268
264 264 264 264 264 264 264 265 265 265 265 266 266 266 267 267 267 267 267 267 267 267 267 268 268 268 269 269 269 270 270 270 271 271 272 272 272 273 273 274 274 274 275 275 276 276 276 277 277 278 278 278 278 278 278 278 278 278 278 278 278 279 279 278 278 278 278 277 277 277 276 276 276 275 275 274 273 272 271 270 270 270 269 269 269
266 265 265 265 265 266 266 266 266 266 267 267 267 267 267 267 267 267 267 267 267 268 268 268 268 269 269 270 270 270 271 271 271 272 272 272 273 273 273 274 274 274 275 275 276 276 277 277 277 277 278 278 278 278 278 278 278 278 278 278 279 279 279 279 279 278 278 278 277 277 277 276 276 275 275 274 273 272 271 271 271 271 271 271 271
267 267 267 267 267 267 267 267 267 267 268 268 267 267 267 267 267 267 267 267 268 268 268 269 269 270 270 270 270 271 271 271 271 272 272 272 272 273 273 274 274 274 275 275 276 276 277 277 277 277 278 278 278 278 278 278 278 278 279 279 279 279 279 279 279 279 278 278 278 277 277 276 276 275 275 274 273 273 273 273 273 273 272 272 272
269 268 268 268 268 268 268 268 268 268 268 268 268 268 268 268 268 268 268 268 268 269 269 269 269 270 270 270 270 270 271 271 271 271 272 272 272 273 273 274 274 275 275 276 276 277 277 277 277 277 277 277 278 278 278 278 279 279 279 279 279 279 279 279 279 278 278 278 277 277 277 276 276 275 275 274 274 274 274 274 273 273 272 272 271
270 269 269 269 269 269 269 269 269 269 269 269 269 269 269 269 269 269 269 269 269 269 269 269 269 270 270 270 270 270 270 270 271 271 271 272 272 273 273 274 275 275 276 276 276 277 277 277 277 277 277 277 277 278 278 278 279 279 279 279 279 279 279 278 278 278 278 277 277 277 276 276 275 275 275 274 274 274 274 274 273 272 271 270 270
271 270 270 270 269 269 269 269 269 269 269 269 269 269 269 269 269 269 269 269 269 269 269 269 270 270 270 270 270 270 271 271 271 272 272 272 273 273 274 275 275 276 276 276 276 276 276 276 276 277 277 277 277 278 278 278 278 278 278 278 278 278 278 278 278 277 277 277 277 277 276 276 275 275 275 274 274 274 274 273 272 271 270 270 269
271 271 270 270 270 269 269 269 269 269 269 269 269 269 269 269 269 269 269 269 269 269 269 270 270 270 270 270 271 271 271 272 272 272 273 273 274 274 275 275 275 275 275 275 276 276 276 276 276 277 277 277 278 278 278 278 278 278 278 277 277 277 277 277 277 277 277 277 277 277 276 276 275 275 274 274 274 274 273 272 272 271 270 270 269
271 271 271 270 270 270 270 270 269 269 269 269 269 270 270 270 270 270 270 270 270 270 270 270 270 271 271 271 271 272 272 272 273 273 274 274 274 274 274 275 275 275 275 275 276 276 276 276 277 277 277 277 277 277 277 277 277 277 277 276 276 277 277 277 277 277 277 277 277 277 276 275 275 275 275 274 274 273 272 272 271 271 270 270 269
271 271 271 271 271 271 270 270 270 270 270 270 270 270 270 270 271 271 271 271 271 271 271 271 271 272 272 272 272 273 273 273 273 273 274 274 274 274 274 275 275 275 275 276 276 276 276 277 277 277 277 277 277 277 276 276 276 276 276 276 276 277 277 277 277 277 277 277 277 276 276 276 275 275 275 274 274 273 272 272 271 271 270 269 268
272 272 272 271 271 271 271 271 271 271 271 271 271 271 271 271 271 272 272 272 272 272 272 272 272 272 272 272 272 272 272 272 273 273 273 274 274 275 275 275 275 275 276 276 276 276 276 276 276 276 276 276 276 276 276 276 276 276 277 277 277 277 277 277 277 277 277 277 276 276 276 276 276 275 275 274 273 273 272 271 270 270 269 268 268
273 273 272 272 272 272 272 272 272 272 272 272 272 272 272 272 272 272 272 272 272 272 272 272 272 272 272 272 272 272 273 273 273 274 274 274 275 275 275 275 275 275 276 276 276 276 276 276 276 276 276 276 276 276 276 276 277 277 277 277 278 278 278 277 277 277 277 277 277 276 276 276 276 275 274 274 273 272 271 270 270 269 269 269 269
274 274 274 273 273 273 273 272 272 272 272 272 272 272 272 272 272 272 272 272 272 272 272 272 273 273 273 273 273 274 274 274 274 274 274 274 274 275 275 275 275 275 275 275 276 276 276 277 277 277 277 277 277 277 277 277 277 277 277 277 277 277 277 277 277 277 277 277 277 277 276 276 275 274 274 273 272 272 272 272 271 271 270 270 269
275 275 275 274 274 274 273 273 273 273 273 272 272 272 272 272 273 273 273 273 273 273 273 273 273 274 274 274 274 274 274 274 274 274 274 274 275 275 275 275 275 275 276 276 276 276 277 277 277 277 277 277 277 277 277 277 278 278 278 278 278 277 277 277 277 278 278 278 278 277 276 276 275 274 274 274 273 273 272 272 271 272 272 271 270
275 275 275 275 274 274 274 274 273 273 273 273 273 273 273 273 273 273 273 273 273 273 274 274 274 274 274 274 274 274 274 274 274 274 275 275 275 275 275 276 276 276 276 276 277 277 277 277 277 277 276 276 277 277 278 278 278 278 278 278 278 278 278 278 279 279 279 278 278 277 277 276 275 275 274 274 274 273 273 272 272 271 271 272 271
276 276 276 275 275 275 274 274 274 274 273 273 273 273 273 273 273 273 273 274 274 274 274 274 274 274 274 274 274 274 275 275 275 275 275 275 276 276 276 276 276 276 276 277 277 276 276 277 277 277 277 277 278 278 278 278 278 278 278 278 278 278 279 279 279 279 279 278 278 277 277 277 276 276 275 274 273 273 273 273 273 272 272 272 271
278 278 277 277 276 276 275 275 275 274 274 274 274 274 274 274 274 274 274 274 274 274 274 275 275 275 275 275 275 275 275 275 275 275 275 276 276 276 276 276 276 277 277 277 277 277 277 277 277 277 278 278 278 278 278 278 278 278 278 278 278 278 278 278 278 278 278 277 277 277 277 277 276 276 275 275 274 273 273 273 273 273 272 271 271
281 281 280 279 279 278 277 276 276 275 275 274 274 274 274 274 275 275 275 275 275 275 275 275 275 276 276 276 276 275 275 275 275 275 276 276 276 276 276 276 277 277 277 277 277 277 277 277 277 278 278 278 278 278 278 278 278 278 278 278 278 278 277 277 277 277 277 277 277 277 277 277 277 277 276 275 275 274 273 273 272 271 271 270 270
282 282 281 281 280 280 279 278 278 277 276 276 276 275 275 275 276 276 276 276 276 276 276 276 276 276 276 276 276 276 276 276 276 276 276 276 276 276 277 277 277 277 277 277 277 277 278 278 278 278 278 278 278 278 278 279 279 279 279 278 278 278 277 277 277 277 277 277 277 277 277 277 277 277 277 277 276 275 274 272 271 271 270 269 269
281 281 281 281 280 280 280 279 278 278 278 277 277 277 276 276 276 276 276 276 276 276 276 276 276 276 276 276 276 276 276 276 276 277 277 277 277 277 277 277 278 277 277 277 277 277 278 278 278 278 278 278 278 279 279 279 279 279 279 279 278 278 278 278 277 277 277 277 276 276 276 276 276 276 277 277 277 276 275 273 272 270 270 269 268
281 281 280 280 280 280 279 279 278 278 278 278 277 277 277 277 277 277 277 277 277 276 276 276 276 276 277 277 277 277 277 277 277 277 277 278 278 278 278 278 278 277 277 277 277 277 278 277 277 277 278 278 278 279 279 279 279 279 279 279 279 279 278 278 278 277 277 276 276 276 275 275 275 275 275 275 275 276 276 275 274 272 270 269 268
281 281 280 280 280 279 279 279 279 278 278 278 278 278 278 278 278 278 278 277 277 277 277 277 277 278 278 278 278 278 278 278 278 278 277 278 278 278 278 278 278 278 278 278 278 278 277 277 277 277 278 278 278 278 278 278 279 279 279 279 279 279 279 279 278 278 277 277 276 276 276 275 274 274 274 273 273 274 274 275 275 273 271 269 268
283 282 281 281 280 280 280 279 279 279 279 279 279 279 279 279 279 279 279 279 279 279 279 279 279 279 279 279 279 279 279 278 278 278 278 277 277 278 278 278 279 279 279 279 279 278 278 278 278 279 278 278 278 278 279 279 279 279 279 279 279 279 280 280 279 279 279 278 277 277 276 275 274 273 273 272 272 272 272 272 273 273 273 271 269
283 283 282 282 281 281 281 280 280 280 280 280 281 281 281 281 281 281 281 280 280 280 280 280 279 279 279 279 279 279 279 279 279 278 278 278 278 279 279 280 280 281 280 280 279 279 280 280 280 279 279 279 279 279 279 280 280 280 280 280 280 280 280 280 280 280 279 279 278 277 276 275 274 273 273 272 271 271 271 271 271 271 272 272 271
284 283 283 282 282 281 281 281 281 281 281 281 281 281 281 281 281 281 280 280 280 280 280 279 279 279 279 279 279 279 279 280 280 280 280 280 280 280 281 282 282 282 281 281 281 281 281 281 280 280 280 280 280 280 280 280 280 280 280 280 280 280 280 280 280 280 279 279 278 278 277 276 275 274 273 272 271 270 270 270 270 270 271 272 272
285 284 284 283 283 282 282 282 282 282 282 282 282 281 281 281 281 281 281 280 280 280 280 280 280 280 280 280 280 280 281 281 282 282 282 282 282 283 283 282 282 282 282 282 283 283 282 281 281 281 280 280 280 280 280 280 280 280 281 281 281 281 281 281 280 280 279 279 278 278 277 277 276 275 274 273 272 271 270 270 270 270 270 270 271
286 286 285 285 284 284 284 283 283 283 283 283 283 282 282 282 281 281 281 282 282 281 281 281 281 281 281 281 282 282 283 283 283 283 284 284 285 285 284 283 281 281 282 282 282 282 282 282 282 281 281 281 280 280 280 280 280 280 280 281 281 281 281 281 281 280 280 280 279 279 278 277 276 275 274 273 272 272 271 270 270 269 269 269 269
288 288 287 287 287 286 286 285 285 284 284 284 284 284 284 284 283 282 282 282 282 282 283 284 284 284 284 284 284 284 284 284 284 284 285 285 286 286 286 285 284 284 283 283 283 282 282 282 282 282 282 282 282 281 281 281 281 281 281 281 281 281 281 281 281 280 280 280 280 279 279 278 277 276 275 274 272 271 270 269 269 268 268 268 267
290 290 289 289 288 287 287 286 286 286 285 285 285 285 285 285 285 285 285 284 284 284 284 285 286 286 286 286 286 285 285 284 285 285 285 286 286 286 286 286 286 286 285 284 284 283 283 283 282 282 282 283 283 283 283 283 283 283 283 283 282 282 281 281 280 279 279 278 278 277 277 277 277 276 276 275 274 272 271 269 268 268 267 267 267
292 291 290 289 288 288 287 286 286 286 286 286 286 287 287 287 287 288 288 288 288 287 286 285 285 285 286 286 286 286 285 285 285 285 286 286 287 286 286 286 286 286 285 285 285 285 285 285 285 285 285 284 284 284 284 284 284 284 284 284 283 283 283 282 281 280 279 278 277 276 276 275 275 275 275 275 275 274 274 273 271 270 268 267 266
292 292 291 290 289 288 288 287 287 287 287 287 288 288 288 289 289 289 289 289 289 289 289 288 287 286 286 286 286 286 285 285 285 285 285 285 285 285 285 285 285 285 285 286 286 286 287 287 286 286 286 285 285 284 284 284 284 283 283 283 283 283 283 283 283 282 282 281 280 278 277 276 275 274 273 273 273 273 273 273 273 273 271 270 268
292 292 291 291 291 290 290 290 289 289 289 289 288 288 289 289 289 289 288 288 289 289 290 290 290 289 288 287 286 286 286 286 286 286 286 286 285 285 285 284 285 285 285 286 286 286 286 286 286 286 286 286 285 285 285 284 284 284 284 284 284 284 283 283 283 282 282 282 281 280 279 278 277 276 275 274 273 272 271 271 271 271 272 271 271
292 292 292 292 292 292 291 291 290 289 289 289 289 289 289 289 289 289 289 289 290 290 290 291 291 291 291 290 289 288 288 288 288 289 289 289 288 288 287 287 287 287 287 286 286 286 286 286 286 286 286 286 286 285 285 285 285 285 284 284 284 284 284 283 283 282 282 281 281 280 280 279 279 278 277 276 275 274 272 271 270 270 269 269 269
292 292 293 293 292 292 291 290 290 289 289 289 290 290 291 291 290 290 290 290 290 291 291 291 292 292 292 292 292 292 291 291 292 292 291 291 290 290 289 289 289 288 288 288 288 287 287 287 287 287 286 286 286 286 286 285 285 285 284 284 284 284 284 284 284 283 283 282 282 281 280 279 279 278 278 277 276 275 275 273 272 271 270 269 268
293 293 293 293 293 292 292 291 291 291 291 291 291 292 291 291 290 290 290 291 291 291 292 292 293 293 293 294 294 294 294 294 293 293 292 292 292 291 291 291 290 290 290 290 290 289 289 288 288 288 288 288 288 287 287 286 286 285 285 284 284 284 284 284 284 284 283 283 282 282 281 280 279 279 278 278 277 276 275 274 273 272 271 269 268
294 294 294 294 294 294 293 292 292 292 292 292 292 292 291 291 291 291 291 292 292 293 293 294 295 295 295 295 295 295 295 294 294 293 293 293 293 293 293 293 293 293 292 292 292 291 291 290 290 290 289 289 289 288 288 287 287 286 286 286 286 285 285 285 285 285 285 284 284 284 283 283 282 281 280 280 279 278 277 275 274 273 271 270 269
295 296 295 295 294 294 293 293 292 292 292 293 293 292 291 292 292 293 293 294 295 295 296 296 296 296 296 296 296 296 295 296 296 296 296 296 296 296 295 295 295 295 294 294 293 293 293 292 292 291 291 290 289 289 288 288 288 288 288 288 288 287 287 287 286 286 286 286 286 286 285 285 285 284 283 282 281 280 279 278 277 276 274 273 271
297 297 296 295 294 294 293 293 293 293 293 294 293 293 293 294 294 295 295 296 297 297 297 297 297 297 297 297 297 297 298 298 298 299 299 299 298 298 298 297 297 296 296 295 295 294 294 294 293 292 291 290 290 289 289 289 289 289 289 289 289 288 288 288 287 287 287 287 286 286 286 285 285 284 283 282 281 280 279 278 278 277 277 276 275
298 297 296 295 295 294 294 294 294 294 295 295 295 294 295 296 296 297 297 298 298 298 299 299 299 299 299 299 300 300 301 301 301 301 301 301 301 300 300 299 299 298 298 298 297 297 296 295 294 293 293 292 292 292 291 291 291 291 291 290 290 290 289 289 289 288 288 287 286 286 285 284 284 283 283 282 281 280 280 279 278 277 276 276 275
298 297 296 296 295 295 295 295 296 296 297 297 296 296 297 298 298 299 300 300 300 300 301 301 301 301 301 301 302 302 302 303 303 303 302 302 302 301 301 301 301 301 300 300 300 300 299 298 297 296 295 295 295 294 294 293 293 292 292 291 291 291 290 290 289 288 288 287 286 286 285 285 284 284 283 282 282 281 281 280 279 278 277 276 275
298 298 297 297 296 296 296 297 297 298 298 298 298 299 300 300 300 301 302 302 302 302 302 302 302 302 303 303 303 303 303 303 303 303 302 302 302 302 302 302 302 302 302 302 302 301 300 299 298 297 296 296 296 295 295 294 294 294 293 293 293 293 293 292 291 290 289 288 288 287 286 286 285 284 283 283 282 281 280 280 279 278 278 277 276
299 299 298 298 298 298 298 298 299 300 300 300 300 301 302 302 302 303 303 303 303 303 303 303 303 303 304 304 304 304 304 304 303 303 303 303 303 303 303 303 303 303 303 303 303 302 301 300 299 299 298 298 298 297 297 297 296 296 297 297 297 297 296 295 294 293 292 291 291 290 289 288 287 286 285 283 282 281 280 279 279 278 277 277 276
300 299 299 299 300 300 301 301 302 302 302 302 303 303 303 303 303 304 304 304 304 304 304 304 304 304 304 304 304 304 304 304 304 305 305 305 305 305 306 306 306 306 306 306 305 304 303 303 302 301 301 301 301 300 300 300 299 300 300 300 300 299 299 298 297 296 295 295 294 293 292 291 289 288 286 285 283 282 281 280 279 278 278 277 276
301 301 301 301 302 302 303 303 304 304 304 304 304 305 305 304 305 305 304 304 305 305 305 305 305 305 305 305 305 306 306 306 307 307 307 307 307 307 308 308 308 308 308 308 307 307 306 305 304 304 303 304 304 303 303 302 302 302 302 302 301 301 300 299 299 298 298 297 296 295 294 292 291 289 288 286 285 284 283 282 282 281 280 279 277
303 303 303 304 304 305 306 306 307 307 306 306 306 306 306 306 306 305 305 305 305 305 305 305 305 305 306 306 307 307 307 308 308 309 309 308 308 309 309 310 310 310 310 310 310 309 308 307 306 306 306 306 306 305 305 304 304 304 304 304 303 302 301 300 300 300 299 298 297 296 294 294 293 292 291 290 289 288 287 286 285 284 283 281 280
305 306 306 307 308 308 308 308 308 308 308 307 307 307 307 307 306 306 306 306 306 306 306 306 306 306 307 307 308 308 309 309 309 309 309 309 310 310 311 311 311 312 312 312 312 311 310 309 309 308 308 308 307 306 306 306 306 306 306 305 304 303 303 302 302 301 300 299 298 298 297 297 297 296 296 295 293 292 290 289 287 286 284 283 281